Greenville, AL

8:24 AM CDT on August 22, 2017 (GMT -0500)
Greenville Municipal

Weather History for KPRN - August, 2014

Change the Weather History Date:

Friday, August 29, 2014

  Actual Average Record
Temperature  
Mean Temperature 80 °F -  
Max Temperature 96 °F 90 °F 102 °F (1951)
Min Temperature 66 °F 67 °F 50 °F (1992)
Cooling Degree Days 16    
Growing Degree Days 30 (Base 50)    
Moisture  
Dew Point 68 °F    
Average Humidity 66    
Maximum Humidity 90    
Minimum Humidity 36    
Precipitation  
Precipitation 0.03 in - - ()
Sea Level Pressure  
Sea Level Pressure 30.01 in    
Wind  
Wind Speed 2 mph (SSE)    
Max Wind Speed 10 mph    
Max Gust Speed 17 mph    
Visibility 10 miles    
Events Thunderstorm    
Averages and records for this station are not official NWS values.
T = Trace of Precipitation, MM = Missing Value Source: NWS Daily Summary

Daily Weather History Graph

Daily Weather History Graph

Search for Another Location

Airport or City:

Trip Planner

Search our weather history database for the weather conditions in past years. The results will help you decide how hot, cold, wet, or windy it might be!

Date:

Astronomy

Aug. 29, 2014 Rise Set
Actual Time 6:20 AM CDT 7:14 PM CDT
Civil Twilight 5:55 AM CDT 7:39 PM CDT
Nautical Twilight 5:25 AM CDT 8:08 PM CDT
Astronomical Twilight 4:55 AM CDT 8:38 PM CDT
Moon 9:52 AM CDT (8/29) 9:28 PM CDT (8/29)
Length of Visible Light 13h 43m
Length of Day
12h 54m
Waxing Crescent, 15% of the Moon is Illuminated
Aug 29
Waxing Crescent
Sep 2
First Quarter
Sep 8
Full
Sep 15
Last Quarter
Sep 24
New

Hourly Weather History & Observations

Time (CDT) Temp. Heat Index Dew Point Humidity Pressure Visibility Wind Dir Wind Speed Gust Speed Precip Events Conditions
12:56 AM 70.0 °F - 66.9 °F 90% 30.00 in 10.0 mi Calm Calm - N/A   Clear
1:56 AM 70.0 °F - 66.0 °F 87% 29.99 in 10.0 mi Calm Calm - N/A   Clear
2:56 AM 69.1 °F - 64.9 °F 87% 29.99 in 10.0 mi Calm Calm - N/A   Clear
3:56 AM 66.9 °F - 64.0 °F 90% 29.99 in 10.0 mi Calm Calm - N/A   Clear
4:56 AM 69.1 °F - 64.9 °F 87% 29.99 in 10.0 mi Calm Calm - N/A   Clear
5:56 AM 66.9 °F - 63.0 °F 87% 30.01 in 9.0 mi Calm Calm - N/A   Clear
6:56 AM 70.0 °F - 66.0 °F 87% 30.01 in 9.0 mi Calm Calm - N/A   Clear
8:56 AM 82.9 °F 87.0 °F 70.0 °F 65% 30.01 in 10.0 mi NE 4.6 mph - N/A   Clear
9:56 AM 87.1 °F 90.6 °F 68.0 °F 53% 30.03 in 10.0 mi Variable 4.6 mph - N/A   Clear
10:56 AM 89.1 °F 91.3 °F 66.0 °F 46% 30.04 in 10.0 mi SE 10.4 mph - N/A   Partly Cloudy
11:56 AM 91.0 °F 93.0 °F 64.9 °F 42% 30.03 in 10.0 mi South 8.1 mph 17.3 mph N/A   Clear
12:56 PM 91.0 °F 93.8 °F 66.0 °F 44% 30.02 in 10.0 mi SSW 8.1 mph - N/A   Partly Cloudy
1:56 PM 93.9 °F 95.6 °F 64.0 °F 37% 29.99 in 10.0 mi South 5.8 mph - N/A   Clear
2:56 PM 95.0 °F 97.0 °F 64.0 °F 36% 29.97 in 10.0 mi Calm Calm - N/A   Scattered Clouds
3:56 PM 93.9 °F 95.6 °F 64.0 °F 37% 29.96 in 10.0 mi Calm Calm - N/A   Clear
4:56 PM 91.0 °F 93.8 °F 66.0 °F 44% 29.96 in 10.0 mi Calm Calm - N/A   Scattered Clouds
5:56 PM 90.0 °F 92.8 °F 66.9 °F 46% 29.96 in 10.0 mi ESE 3.5 mph - N/A   Mostly Cloudy
6:56 PM 87.1 °F 94.5 °F 73.0 °F 63% 29.96 in 10.0 mi Calm Calm - N/A   Overcast
7:56 PM 84.0 °F 89.0 °F 71.1 °F 65% 29.99 in 10.0 mi South 5.8 mph - N/A   Mostly Cloudy
8:56 PM 82.9 °F 87.5 °F 71.1 °F 67% 30.03 in 10.0 mi South 9.2 mph - N/A   Overcast
9:56 PM 81.0 °F 84.9 °F 71.1 °F 72% 30.05 in 10.0 mi SSE 5.8 mph - N/A   Partly Cloudy
10:03 PM 80.6 °F 84.6 °F 71.6 °F 74% 30.07 in 10.0 mi SSE 4.6 mph - N/A Thunderstorm Thunderstorm
10:26 PM 80.6 °F 84.6 °F 71.6 °F 74% 30.08 in 10.0 mi SSE 6.9 mph - N/A   Partly Cloudy
10:56 PM 79.0 °F - 71.1 °F 77% 30.05 in 10.0 mi SE 4.6 mph - 0.00 in   Mostly Cloudy
11:56 PM 75.0 °F - 72.0 °F 90% 30.06 in 10.0 mi SSE 3.5 mph - 0.03 in   Mostly Cloudy